• In Belarus
  • List of Countries
  • For 7 days
  • Water Temperature
  • Weather Map
  • Weather Widgets
  • user-avatar
    Login

    Hourly Weather Algiers

    Today, 26 August, Monday

    Time Temperature Precipitation Wind Pressure Humidity
    00:00 +26°C° 0 mm 4 mps 748 mmHg 86%
    01:00 +26°C° 0 mm 3 mps 748 mmHg 86%
    02:00 +26°C° 0 mm 3 mps 748 mmHg 85%
    03:00 +26°C° 0 mm 3 mps 748 mmHg 85%
    04:00 +26°C° 0 mm 3 mps 748 mmHg 84%
    05:00 +26°C° 0 mm 3 mps 748 mmHg 82%
    06:00 +26°C° 0 mm 3 mps 748 mmHg 81%
    07:00 +28°C° 0 mm 3 mps 748 mmHg 74%
    08:00 +29°C° 0 mm 3 mps 748 mmHg 66%
    09:00 +31°C° 0 mm 3 mps 748 mmHg 59%
    10:00 +32°C° 0 mm 4 mps 748 mmHg 59%
    11:00 +33°C° 0 mm 4 mps 748 mmHg 59%
    12:00 +33°C° 0 mm 5 mps 747 mmHg 59%
    13:00 +33°C° 0 mm 5 mps 747 mmHg 59%
    14:00 +33°C° 0 mm 6 mps 747 mmHg 59%
    15:00 +33°C° 0 mm 6 mps 746 mmHg 59%
    16:00 +32°C° 0 mm 6 mps 746 mmHg 63%
    17:00 +30°C° 0 mm 5 mps 746 mmHg 68%
    18:00 +29°C° 0 mm 5 mps 747 mmHg 73%
    19:00 +29°C° 0 mm 5 mps 747 mmHg 70%
    20:00 +30°C° 0 mm 5 mps 747 mmHg 67%
    21:00 +30°C° 0 mm 5 mps 747 mmHg 64%
    22:00 +30°C° 0 mm 4 mps 747 mmHg 60%
    23:00 +30°C° 0 mm 4 mps 747 mmHg 57%

    Tomorrow, 27 August, Tuesday

    Time Temperature Precipitation Wind Pressure Humidity
    00:00 +32°C° 0 mm 4 mps 747 mmHg 53%
    01:00 +30°C° 0 mm 3 mps 747 mmHg 58%
    02:00 +29°C° 0 mm 3 mps 747 mmHg 64%
    03:00 +28°C° 0 mm 2 mps 747 mmHg 69%
    04:00 +28°C° 0 mm 2 mps 747 mmHg 67%
    05:00 +28°C° 0 mm 1 mps 748 mmHg 66%
    06:00 +28°C° 0 mm 1 mps 748 mmHg 65%
    07:00 +29°C° 0.1 mm 1 mps 748 mmHg 59%
    08:00 +30°C° 0.1 mm 2 mps 748 mmHg 52%
    09:00 +31°C° 0.1 mm 2 mps 748 mmHg 46%
    10:00 +34°C° 0 mm 4 mps 748 mmHg 41%
    11:00 +35°C° 0 mm 5 mps 747 mmHg 36%
    12:00 +38°C° 0 mm 6 mps 747 mmHg 31%
    13:00 +38°C° 0 mm 7 mps 746 mmHg 31%
    14:00 +39°C° 0 mm 8 mps 746 mmHg 31%
    15:00 +39°C° 0 mm 10 mps 745 mmHg 31%
    16:00 +37°C° 0 mm 8 mps 745 mmHg 41%
    17:00 +34°C° 0 mm 6 mps 745 mmHg 50%
    18:00 +30°C° 0 mm 5 mps 746 mmHg 60%
    19:00 +30°C° 0 mm 5 mps 746 mmHg 64%
    20:00 +29°C° 0 mm 4 mps 747 mmHg 67%
    21:00 +28°C° 0 mm 4 mps 747 mmHg 71%
    22:00 +28°C° 0 mm 4 mps 747 mmHg 69%
    23:00 +28°C° 0 mm 4 mps 747 mmHg 68%

    Day after tomorrow, 28 August, Wednesday

    Time Temperature Precipitation Wind Pressure Humidity
    00:00 +28°C° 0 mm 5 mps 747 mmHg 67%
    01:00 +27°C° 0 mm 4 mps 747 mmHg 71%
    02:00 +27°C° 0 mm 4 mps 747 mmHg 76%
    03:00 +26°C° 0 mm 3 mps 747 mmHg 80%
    04:00 +26°C° 0 mm 3 mps 748 mmHg 80%
    05:00 +26°C° 0 mm 3 mps 748 mmHg 80%
    06:00 +26°C° 0 mm 3 mps 749 mmHg 80%
    07:00 +27°C° 0 mm 3 mps 749 mmHg 73%
    08:00 +28°C° 0 mm 3 mps 749 mmHg 66%
    09:00 +29°C° 0 mm 3 mps 749 mmHg 59%
    10:00 +30°C° 0 mm 3 mps 749 mmHg 56%
    11:00 +31°C° 0 mm 3 mps 749 mmHg 53%
    12:00 +33°C° 0 mm 4 mps 749 mmHg 50%
    13:00 +32°C° 0 mm 4 mps 748 mmHg 50%
    14:00 +32°C° 0 mm 4 mps 748 mmHg 51%
    15:00 +32°C° 0 mm 4 mps 748 mmHg 51%
    16:00 +30°C° 0 mm 3 mps 747 mmHg 54%
    17:00 +29°C° 0 mm 3 mps 747 mmHg 57%
    18:00 +28°C° 0 mm 2 mps 747 mmHg 60%
    19:00 +28°C° 0 mm 2 mps 748 mmHg 62%
    20:00 +27°C° 0 mm 2 mps 748 mmHg 65%
    21:00 +27°C° 0 mm 2 mps 749 mmHg 67%
    22:00 +27°C° 0 mm 2 mps 749 mmHg 66%
    23:00 +26°C° 0 mm 2 mps 749 mmHg 64%

    29 August, Thursday

    Time Temperature Precipitation Wind Pressure Humidity
    00:00 +26°C° 0 mm 1 mps 749 mmHg 63%
    01:00 +26°C° 0 mm 1 mps 749 mmHg 64%
    02:00 +26°C° 0 mm 1 mps 749 mmHg 65%
    03:00 +25°C° 0 mm 1 mps 749 mmHg 65%
    04:00 +25°C° 0 mm 2 mps 749 mmHg 66%
    05:00 +25°C° 0 mm 2 mps 749 mmHg 66%
    06:00 +25°C° 0 mm 2 mps 749 mmHg 66%
    07:00 +27°C° 0 mm 2 mps 749 mmHg 61%
    08:00 +28°C° 0 mm 3 mps 749 mmHg 57%
    09:00 +29°C° 0 mm 3 mps 749 mmHg 53%
    10:00 +30°C° 0 mm 4 mps 749 mmHg 52%
    11:00 +30°C° 0 mm 4 mps 749 mmHg 52%
    12:00 +32°C° 0 mm 5 mps 749 mmHg 52%
    13:00 +30°C° 0 mm 5 mps 749 mmHg 54%
    14:00 +30°C° 0 mm 5 mps 749 mmHg 56%
    15:00 +30°C° 0 mm 5 mps 748 mmHg 59%
    16:00 +29°C° 0 mm 5 mps 749 mmHg 62%
    17:00 +28°C° 0 mm 5 mps 749 mmHg 64%
    18:00 +28°C° 0 mm 4 mps 749 mmHg 67%
    19:00 +27°C° 0 mm 4 mps 749 mmHg 68%
    20:00 +27°C° 0 mm 4 mps 749 mmHg 69%
    21:00 +27°C° 0 mm 4 mps 750 mmHg 70%
    22:00 +27°C° 0 mm 4 mps 749 mmHg 71%
    23:00 +26°C° 0 mm 4 mps 749 mmHg 72%

    30 August, Friday

    Time Temperature Precipitation Wind Pressure Humidity
    00:00 +26°C° 0 mm 4 mps 749 mmHg 72%
    01:00 +26°C° 0 mm 4 mps 748 mmHg 72%
    02:00 +26°C° 0 mm 4 mps 748 mmHg 72%
    03:00 +26°C° 0 mm 3 mps 748 mmHg 71%
    04:00 +26°C° 0 mm 3 mps 748 mmHg 73%
    05:00 +26°C° 0 mm 3 mps 748 mmHg 76%
    06:00 +26°C° 0 mm 3 mps 749 mmHg 78%
    07:00 +26°C° 0 mm 3 mps 749 mmHg 74%
    08:00 +27°C° 0 mm 3 mps 749 mmHg 71%
    09:00 +28°C° 0 mm 4 mps 749 mmHg 68%
    10:00 +28°C° 0 mm 4 mps 749 mmHg 66%
    11:00 +29°C° 0 mm 4 mps 749 mmHg 64%
    12:00 +29°C° 0 mm 4 mps 749 mmHg 63%
    13:00 +29°C° 0 mm 4 mps 749 mmHg 63%
    14:00 +29°C° 0 mm 4 mps 748 mmHg 63%
    15:00 +30°C° 0 mm 4 mps 748 mmHg 63%
    16:00 +29°C° 0 mm 4 mps 748 mmHg 66%
    17:00 +28°C° 0 mm 4 mps 748 mmHg 69%
    18:00 +27°C° 0 mm 4 mps 748 mmHg 73%
    19:00 +27°C° 0 mm 4 mps 748 mmHg 76%
    20:00 +26°C° 0 mm 3 mps 748 mmHg 80%
    21:00 +26°C° 0 mm 3 mps 749 mmHg 83%
    22:00 +25°C° 0 mm 3 mps 749 mmHg 84%
    23:00 +25°C° 0 mm 3 mps 748 mmHg 84%

    31 August, Saturday

    Time Temperature Precipitation Wind Pressure Humidity
    00:00 +25°C° 0 mm 3 mps 748 mmHg 85%
    01:00 +25°C° 0 mm 2 mps 748 mmHg 85%
    02:00 +25°C° 0 mm 2 mps 748 mmHg 85%
    03:00 +24°C° 0 mm 2 mps 747 mmHg 86%
    04:00 +24°C° 0 mm 2 mps 748 mmHg 85%
    05:00 +24°C° 0 mm 2 mps 748 mmHg 84%
    06:00 +25°C° 0 mm 2 mps 748 mmHg 83%
    07:00 +26°C° 0 mm 2 mps 748 mmHg 76%
    08:00 +27°C° 0 mm 2 mps 748 mmHg 70%
    09:00 +28°C° 0 mm 3 mps 749 mmHg 63%
    10:00 +29°C° 0 mm 3 mps 748 mmHg 61%
    11:00 +30°C° 0 mm 4 mps 748 mmHg 60%
    12:00 +30°C° 0 mm 5 mps 748 mmHg 58%
    13:00 +30°C° 0 mm 5 mps 748 mmHg 60%
    14:00 +30°C° 0 mm 5 mps 747 mmHg 61%
    15:00 +30°C° 0 mm 5 mps 747 mmHg 63%
    16:00 +29°C° 0 mm 5 mps 747 mmHg 66%
    17:00 +28°C° 0 mm 5 mps 747 mmHg 69%
    18:00 +27°C° 0 mm 5 mps 747 mmHg 72%
    19:00 +27°C° 0 mm 4 mps 748 mmHg 75%
    20:00 +26°C° 0 mm 4 mps 748 mmHg 78%
    21:00 +26°C° 0 mm 3 mps 748 mmHg 80%
    22:00 +26°C° 0 mm 3 mps 748 mmHg 81%
    23:00 +25°C° 0 mm 3 mps 748 mmHg 81%
    Show more